Погода в Салдусе

Погода в Салдусе : погода сейчас, прогноз погоды и архив. Всё, что Вы хотите узнать о погоде в Салдусе!

Поиск расширенной информации на нашем сайте:

Другие новости

Новости СМИ2

Главная страница сайта

Новости сайта

02.10.2013

Напоминаем, что на нашем новом сайте вы можете получить высокодетализированные прогнозы погоды по пунктам России, СНГ и мира (включающие важные для авиации метеовеличины, такие как направление и скорость ветра, видимость, явления погоды, количество и форма облачности, нижняя и верхняя граница облачности), а также ознакомиться с разнообразными материалами по авиационной метеорологии и подборкой полезных ссылок на эту тему.

Сайт Метеоцентр.Азия посвящён разработке технологий оптимизации авиаметеорологического обслуживания, включая проектирование и перспективное создание нескольких автоматизированных авиаметеорологических систем:
- система выпуска высокодетальных прогностических карт явлений погоды для нижнего воздушного пространства по России и ближнему зарубежью;
- система верификации прогнозов TAF (выпускаемых синоптиками официальных АМСГ РФ и ближнего зарубежья) и AUTOTAF (выпускаемых сайтом Метеоцентр.Азия) - выявление ошибок, онлайн-сопоставление с фактической погодой METAR, автоматическое внесение коррективов в прогнозы при резком отклонении фактической погоды от прогноза, подсчёт оправдываемости прогнозов по элементам и в целом;
- система обработки, анализа и отображения авиаметеорологической информации для применения провайдерами метеорологической информации.


Погода в Салдусе - сегодня

Время (UTC), дата Ветер
(°,м/с) 
Видим.   Явления Облачность Т
(°С)
Тd
(°С)
f(%) Тe
(°С)
Pmin
(гПа)
dP
(гПа)
Po
(мм)
O2
(г/м3)
Тmin Tmax R s Состояние
почвы
03 27.05.17 300 (СЗ) 2-3  н/о    н/о 
+6.4 +4.9 90 +6  1022.5  1.2  756  297           
06 27.05.17 310 (СЗ) 3-6  н/о    н/о 
+13.6 +6.7 63 +14  1022.5  0.4  757  289           
09 27.05.17 340 (С) 1-2  н/о    н/о 
+12.2 +7.6 73 +13  1023.4  0.8  757  291           
12 27.05.17 270 (З) 4-9  н/о    н/о 
+19.5 +6.9 44 +20  1021.4  -1.7  756  283           
15 27.05.17 280 (З) 4-8  н/о    н/о 
+19.6 +6.8 43 +20  1020.2  -1.1  755  283           
18 27.05.17 260 (З) 2-4  н/о    н/о 
+16.4 +6.4 52 +17  1019.5  -0.9  755  286           
21 27.05.17 250 (З) 2-4  н/о    н/о 
+12.5 +6.1 65 +13  1020  755  290           
00 28.05.17 240 (ЮЗ) 1-3  н/о    н/о 
+10 +7.6 85 +11  1019.9  -0.2  755  292           
03 28.05.17 220 (ЮЗ) 2-3  н/о    н/о 
+9.4 +7.9 90 +9  1019.2  754  292           
06 28.05.17 220 (ЮЗ) 2-5  н/о    н/о 
+17.2 +12 71 +22  1018.5  -0.3  754  283           
09 28.05.17 250 (З) 4-8  н/о    н/о 
+23.7 +14.1 55 +31  1017  753  276           
12 28.05.17 270 (З) 5-9  н/о    н/о 
+24 +11.7 46 +27  1016.7  -0.3  753  277           
15 28.05.17 260 (З) 5-8  н/о    н/о 
+23.7 +8.4 38 +24  1015.1  -1.5  752  277           
18 28.05.17 220 (ЮЗ) 2-5  н/о    н/о 
+19.9 +9.1 50 +21  1013.1  750  280           
21 28.05.17 210 (ЮЗ) 3-6  н/о    н/о 
+18.4 +9.7 57 +20  1010.5  -2.6  748  281           
00 29.05.17 220 (ЮЗ) 4-8  н/о    н/о 
+18.2 +10.8 62 +21  1007.3  -3.1  746  280           
03 29.05.17 260 (З) 3-5  н/о    н/о 
+15.6 +12.1 80 +20  1006.1  745  281           
06 29.05.17 280 (З) 3-6  н/о    н/о 
+16.5 +12.7 78 +22  1006.6  0.5  745  281           
09 29.05.17 290 (З) 4-8  н/о    н/о 
+16 +13.3 84 +22  1008  1.3  746  281           
12 29.05.17 300 (СЗ) 4-8  н/о    н/о 
+17.5 +12.9 74 +23  1008.7  0.8  747  280           
15 29.05.17 310 (СЗ) 4-6  н/о    н/о 
+17.9 +12.9 73 +23  1009.1  747  280           
18 29.05.17 330 (СЗ) 5-7  н/о    н/о 
+15 +9.8 71 +16  1009.9  0.6  747  284           
21 29.05.17 330 (СЗ) 4-6  н/о    н/о 
+7.4 +5.5 88 +6  1011.9  1.6  749  293           
00 30.05.17 320 (СЗ) 3-5  н/о    н/о 
+5.7 +5.6 99 +5  1012.4  0.4  749  295           
03 30.05.17 310 (СЗ) 2-4  н/о    н/о 
+6.3 +6 98 +6  1012.5  749  294           
Время (UTC), дата Ветер
(°,м/с) 
Видим.   Явления Облачность Т
(°С)
Тd
(°С)
f(%) Тe
(°С)
Pmin
(гПа)
dP
(гПа)
Po
(мм)
O2
(г/м3)
Тmin Tmax R s Состояние
почвы

Для получения пояснительной информации подведите курсор к названию столбца.

ПОГОДА в Салдусе - архив

Всё, что Вы хотите узнать о погоде в Салдусе - удобно и подробно!

Выберите нужную дату (начиная с 1 января 2015* года) и нажмите кнопку "Найти".
Будут отображены архивные сводки погоды по пункту Салдус, начиная с указанной даты.


Отображать данные в формате CSV (для использования в таблицах Excel)


Внимание! Наш архив погоды предназначен исключительно для личного некоммерческого использования в познавательных целях. Если Вам необходимы официальные справки о состоянии погоды (для производственных, юридических, коммерческих и т.п. целей), обращайтесь в органы Росгидромета.

*Примечание: данная дата относится к архиву по метеостанциям СССР (Россия, СНГ, Балтия).
Архив по метеостанциям Зарубежной Европы и Азии (кроме Китая) хранится 10 дней, по другим регионам земного шара (Китай, Африка, Америка, Австралия, Океания) - 1 день.

Салдус - район местоположения метеостанции


Название, широта, долгота, высота метеостанции:
Салдус 56.7°ш. 22.5°д. 112 м над ур. моря [Латвия]

Дополнительная информация

В oтличие oт бoльшинства пoгoдных сайтoв мы публикуем пoдрoбную метеoинфoрмацию в детальнoм прoфессиoнальнoм фoрмате.

Характеристики температуры и влажнoсти вoздуха измеряются на высoте 2 м в тени вдали oт зданий и деревьев.
Скoрoсть ветра измеряется на высoте 10 м (на урoвне рoста челoвека скoрoсть ветра ниже в 1.5-2 раза). Если метеoстанция нахoдится в гoрoде или в лесу, тo скoрoсть ветра занижена на 2-4 м/с пo сравнению с oткрытым местoм. Скoрoсть ветра над акватoриями крупных рек и oзёр, а также на вершинах хoлмoв на 2-5 м/с выше, чем в oбычных услoвиях.
Атмoсфернoе давление в разных тoчках местнoсти мoжет значительнo oтличаться oт давления на метеoстанции, в зависимoсти oт услoвий рельефа (при пoдъёме на 10 м давление пoнижается примернo на 1 мм рт.ст.).